SR2ATJ-13 Weather Reports


time (UTC)temp
F
wind
direction
speed
knots
gust
knots
rain 1hr
in
rain 24hr
in
rain mn
in
humidity
%
barometer
mb
20260504100503 78 0.0 0.0 0.00 0.00 0.00 34 1011.8
20260504045503 57 0.0 0.0 0.00 0.00 0.00 54 1011.1
20260504044504 56 0.0 0.0 0.00 0.00 0.00 55 1011.0
20260504043503 55 0.0 0.0 0.00 0.00 0.00 56 1011.0
20260504042503 55 0.0 0.0 0.00 0.00 0.00 56 1011.0
20260504041503 55 0.0 0.0 0.00 0.00 0.00 56 1011.0
20260504040503 55 0.0 0.0 0.00 0.00 0.00 56 1010.9
20260504035504 54 0.0 0.0 0.00 0.00 0.00 56 1011.0
20260504034503 54 0.0 0.0 0.00 0.00 0.00 56 1010.9
20260504033503 54 0.0 0.0 0.00 0.00 0.00 56 1011.0
20260504032504 54 0.0 0.0 0.00 0.00 0.00 55 1011.1
20260504031504 54 0.0 0.0 0.00 0.00 0.00 55 1011.1
20260504025503 55 0.0 0.0 0.00 0.00 0.00 53 1011.0
20260504023504 56 0.0 0.0 0.00 0.00 0.00 53 1011.0
20260504022503 56 0.0 0.0 0.00 0.00 0.00 53 1011.0
20260504021503 56 0.0 0.0 0.00 0.00 0.00 53 1011.0
20260504020502 56 0.0 0.0 0.00 0.00 0.00 53 1011.0
20260504015503 55 0.0 0.0 0.00 0.00 0.00 53 1011.0
20260504014504 55 0.0 0.0 0.00 0.00 0.00 53 1011.0
20260504013503 55 0.0 0.0 0.00 0.00 0.00 52 1011.1
20260504012502 56 0.0 0.0 0.00 0.00 0.00 52 1011.2
20260504011502 56 0.0 0.0 0.00 0.00 0.00 52 1011.2
20260504010503 56 0.0 0.0 0.00 0.00 0.00 51 1011.1
20260504004502 56 0.0 0.0 0.00 0.00 0.00 51 1011.1
20260504003502 56 0.0 0.0 0.00 0.00 0.00 50 1011.1
20260504001503 56 0.0 0.0 0.00 0.00 0.00 49 1011.1
20260503235502 57 0.0 0.0 0.00 0.00 0.00 48 1011.1
20260503234503 57 0.0 0.0 0.00 0.00 0.00 48 1011.2
20260503233503 57 0.0 0.0 0.00 0.00 0.00 47 1011.3
20260503232503 58 0.0 0.0 0.00 0.00 0.00 47 1011.3
20260503231504 58 0.0 0.0 0.00 0.00 0.00 46 1011.2
20260503225503 58 0.0 0.0 0.00 0.00 0.00 46 1011.3
20260503224502 58 0.0 0.0 0.00 0.00 0.00 46 1011.2
20260503223504 58 0.0 0.0 0.00 0.00 0.00 46 1011.3
20260503222505 58 0.0 0.0 0.00 0.00 0.00 46 1011.3
20260503221505 58 0.0 0.0 0.00 0.00 0.00 46 1011.4
20260503220503 59 0.0 0.0 0.00 0.00 0.00 47 1011.4
20260503215503 59 0.0 0.0 0.00 0.00 0.00 45 1011.5
20260503214504 60 0.0 0.0 0.00 0.00 0.00 42 1011.4
20260503213503 61 0.0 0.0 0.00 0.00 0.00 41 1011.4
20260503212503 61 0.0 0.0 0.00 0.00 0.00 41 1011.4
20260503211503 61 0.0 0.0 0.00 0.00 0.00 41 1011.4
20260503210503 61 0.0 0.0 0.00 0.00 0.00 41 1011.4
20260503205504 61 0.0 0.0 0.00 0.00 0.00 41 1011.4
20260503204503 60 0.0 0.0 0.00 0.00 0.00 42 1011.5
20260503202507 60 0.0 0.0 0.00 0.00 0.00 43 1011.6
20260503201504 61 0.0 0.0 0.00 0.00 0.00 41 1011.7
20260503200503 61 0.0 0.0 0.00 0.00 0.00 39 1011.7
20260503195505 62 0.0 0.0 0.00 0.00 0.00 38 1011.7
20260503194503 62 0.0 0.0 0.00 0.00 0.00 38 1011.7
20260503193503 62 0.0 0.0 0.00 0.00 0.00 38 1011.8
20260503191503 64 0.0 0.0 0.00 0.00 0.00 35 1011.7
20260503190503 65 0.0 0.0 0.00 0.00 0.00 32 1011.6
20260503185503 66 0.0 0.0 0.00 0.00 0.00 32 1011.5
20260503184503 66 0.0 0.0 0.00 0.00 0.00 32 1011.5
20260503183503 66 0.0 0.0 0.00 0.00 0.00 32 1011.4
20260503182505 67 0.0 0.0 0.00 0.00 0.00 32 1011.4
20260503181505 68 0.0 0.0 0.00 0.00 0.00 31 1011.4
20260503180503 69 0.0 0.0 0.00 0.00 0.00 29 1011.2
20260503175503 70 0.0 0.0 0.00 0.00 0.00 29 1011.2
20260503174503 71 0.0 0.0 0.00 0.00 0.00 28 1011.1
20260503173503 72 0.0 0.0 0.00 0.00 0.00 27 1011.1
20260503172503 73 0.0 0.0 0.00 0.00 0.00 26 1011.0
20260503171504 74 0.0 0.0 0.00 0.00 0.00 26 1011.0
20260503150503 79 0.0 0.0 0.00 0.00 0.00 23 1011.5
20260503130503 82 0.0 0.0 0.00 0.00 0.00 24 1012.8
20260503110503 83 0.0 0.0 0.00 0.00 0.00 23 1013.8